Regional Weather Roundup
Issued by NWS Cleveland, OH

Home | Current Version | Previous Version | Graphics & Text | Print | Product List | Glossary On
Versions: 1 2 3 4 5 6 7 8 9 10 11 12 13 14 15 16 17 18 19 20 21 22 23 24 25 26 27 28 29 30 31 32 33 34 35 36 37 38 39 40 41 42 43 44 45 46 47 48 49 50
000
ASUS41 KCLE 221102
RWRCLE
OHIO REGIONAL WEATHER ROUNDUP
NATIONAL WEATHER SERVICE CLEVELAND, OH
700 AM EDT THU JUN 22 2017

NOTE: "FAIR" INDICATES FEW OR NO CLOUDS BELOW 12,000 FEET WITH NO
SIGNIFICANT WEATHER AND/OR OBSTRUCTIONS TO VISIBILITY.

OHZ001>008-015>018-024>027-034-035-043-044-221200-
   NORTHWEST OHIO

CITY           SKY/WX    TMP DP  RH WIND       PRES   REMARKS
DEFIANCE       PTCLDY    68  62  81 S5        29.92F
FINDLAY        CLOUDY    72  65  78 S6        29.93F
TOLEDO EXPRESS CLOUDY    65  56  72 S3        29.91F
TOLEDO EXEC    CLOUDY    68  59  73 S7        29.92F
LIMA           CLOUDY    73  68  84 SW7       29.96S
$$

OHZ009>014-019>023-028>033-038-089-221200-
   NORTHEAST OHIO

CITY           SKY/WX    TMP DP  RH WIND       PRES   REMARKS
CLE-HOPKINS    MOSUNNY   67  56  67 S10       29.98F
CLE-LAKEFRONT  MOSUNNY   66  53  63 SE13      29.95F
CUY CO. ARPT   MOSUNNY   66  54  63 S12       29.98
LORAIN-ELYRIA  PTCLDY    64  53  67 S5        29.97F
ASHTABULA      MOSUNNY   58  56  93 SE5       30.00F
AKRON-CANTON   PTSUNNY   66  55  67 SE6       30.00F
WOOSTER        PTCLDY    65  58  78 S5        30.00S
MANSFIELD      CLEAR     68  66  93 S7        29.99F
YOUNGSTOWN     MOSUNNY   61  54  77 SE6       30.00F
$$

OHZ042-051>053-060>062-070>072-077>081-221200-
  SOUTHWEST OHIO

CITY           SKY/WX    TMP DP  RH WIND       PRES   REMARKS
CINC-COVINGTON CLOUDY    70  67  90 S6        30.01S
CINC-LUNKEN    MOCLDY    70  68  93 CALM      30.01S
HAMILTON       PTCLDY    72  69  90 CALM      30.01R
DAYTON         CLOUDY    72  67  84 S10       30.00S
WRIGHT-PAT AFB NOT AVBL
DAYTON GENERAL MOCLDY    71  66  84 S6        30.00R
WILMINGTON     CLOUDY    71  68  90 SW7       30.02R
$$

OHZ036-037-039>041-045>050-054>059-063>069-073>076-082>088-221200-
  CENTRAL AND SOUTHEAST OHIO

CITY           SKY/WX    TMP DP  RH WIND       PRES   REMARKS
COLUMBUS       MOCLDY    73  69  87 S7        30.00R
OSU AIRPORT    PTCLDY    73  70  90 S7        29.99R
BOLTON FIELD   NOT AVBL
RICKENBACK AFB PTCLDY    72  69  89 S6        30.00S
NEWARK         PTCLDY    73  67  81 CALM      30.00R
MARION         CLOUDY    70  67  90 S8        29.98S
LANCASTER      MOCLDY    74  67  78 S6        30.01R
ZANESVILLE     PTCLDY    70  66  87 S6        30.01R
NEW PHILLY     NOT AVBL
$$




USA.gov is the U.S. government's official web portal to all federal, state and local government web resources and services.